[[{"header":{"parameterUnit":"m.s-1","parameterCategory":1,"la1":30.2991,"la2":30.254,"lo1":-89.0895,"lo2":-89.0444,"dy":0.0017,"dx":0.0017,"nx":28,"ny":28,"refTime":"2023-08-23T03:00:00:Z","depth":0,"parameterNumber":2,"parameterNumberName":"U-component_of_WINDS"},"data":[0,0,0,0,0,0,0,0,0,0,0,0,0,0,0,0,0,0,0,0,0,0,0,0,0,0,0,0,0,0,0,0,0,0,0,0,0,0,0,0,0,0,0,0,0,0,0,0,0,0,0,0,0,0,0,0,0,0,0.2332,0.2333,0,0.2454,0.2456,0.2457,0.248,0.2479,0.2478,0.2477,0.2605,0.2609,0.2613,0,0,0,0,0,0,0,0,0,0,0,0,0,0.2117,0.212,0.2331,0.2333,0.2334,0.2454,0.2456,0.2457,0.248,0.2479,0.2478,0.2477,0.2603,0.2609,0.2614,0,0,0,0,0,0,0,0,0,0,0,0,0,0.2222,0.2122,0.2331,0.236,0.2364,0.2454,0.2456,0.2458,0.2481,0.2479,0.2478,0.2476,0.2602,0.2608,0.2614,0.2684,0,0,0.2634,0.2637,0,0,0,0,0,0,0,0,0.2216,0.223,0.2355,0.2359,0.2363,0.245,0.2427,0.2534,0.2481,0.2437,0.2477,0.2476,0.2555,0.2565,0.2591,0.269,0.2695,0.2635,0.2639,0.2641,0.2643,0,0,0,0,0,0,0,0.2208,0.2224,0.238,0.2356,0.2361,0.2367,0.2381,0.2447,0.2503,0.244,0.2442,0.2456,0.2557,0.2585,0.2595,0.2697,0.2635,0.264,0.2644,0.2647,0.2856,0.2858,0,0,0,0,0,0,0.2196,0.2218,0.2376,0.2384,0.2284,0.2372,0.2387,0.2424,0.2502,0.2512,0.2458,0.2457,0.2575,0.2587,0.2599,0.2684,0.2641,0.2648,0.2651,0.2854,0.2856,0.2858,0,0,0,0,0,0,0.2191,0.221,0.2371,0.2302,0.2323,0.2378,0.2419,0.2427,0.2455,0.2515,0.2525,0.2476,0.2574,0.259,0.2662,0.2688,0.265,0.2656,0.2852,0.2855,0.2857,0.2854,0,0,0,0,0,0,0.2185,0.2208,0.2235,0.2302,0.2326,0.2432,0.242,0.2431,0.2466,0.2467,0.2535,0.2545,0.2574,0.2652,0.2668,0.2697,0.2661,0.285,0.2853,0.2856,0.2852,0.2856,0.286,0,0,0,0,0,0.2177,0.2231,0.2236,0.2255,0.2361,0.2434,0.2447,0.2479,0.2468,0.2496,0.2533,0.2543,0.2683,0.2659,0.2678,0.2708,0.2849,0.2853,0.2856,0.2851,0.2856,0.286,0,0,0,0,0,0,0.2167,0.224,0.2247,0.2324,0.2372,0.2437,0.2473,0.2484,0.2537,0.2536,0.2573,0.2589,0.2658,0.2691,0.2663,0.2778,0.2765,0.2773,0.2754,0.276,0.2763,0.2754,0.2667,0,0,0,0,0,0.2173,0.2225,0.2287,0.2348,0.2372,0.2418,0.2451,0.2471,0.2523,0.2544,0.2587,0.2637,0.2692,0.2728,0.2782,0.2857,0.2871,0.2887,0.2891,0.2894,0.29,0.2939,0.2946,0.2871,0.287,0.287,0,0,0.2187,0.2234,0.2265,0.2347,0.2387,0.244,0.2435,0.2492,0.2532,0.2553,0.2622,0.2656,0.2714,0.2787,0.2821,0.2816,0.2923,0.2898,0.29,0.2905,0.2944,0.2951,0.2957,0.2873,0.2873,0.2872,0,0,0.224,0.2281,0.2335,0.2375,0.2434,0.2464,0.2477,0.254,0.2563,0.2633,0.2649,0.2697,0.2791,0.2831,0.2864,0.2928,0.2938,0.2945,0.2965,0.3003,0.3009,0.3014,0.3036,0.3043,0.2951,0.2951,0.2951,0,0.225,0.233,0.2362,0.2417,0.2452,0.2472,0.2527,0.2564,0.2639,0.2662,0.2655,0.2772,0.2814,0.2895,0.291,0.2937,0.2951,0.2938,0.3006,0.3011,0.3017,0.3037,0.3045,0.2951,0.2951,0.2951,0.2951,0,0.2339,0.2394,0.2431,0.25,0.254,0.2595,0.2634,0.267,0.2686,0.2717,0.2787,0.2836,0.2899,0.292,0.2938,0.3003,0.2998,0.2998,0.2985,0.3024,0.3044,0.3052,0.2952,0.2952,0.2952,0.2952,0,0,0.2389,0.2474,0.2487,0.2518,0.2584,0.2627,0.2682,0.2743,0.2772,0.2822,0.2868,0.2946,0.2946,0.2983,0.3004,0.3038,0.3083,0.3034,0.3035,0.3039,0.3156,0.3155,0.3163,0.309,0.3091,0.3093,0.315,0,0.2448,0.2546,0.2576,0.2658,0.2708,0.2727,0.2774,0.2819,0.2849,0.2895,0.2928,0.2982,0.2978,0.3,0.3034,0.307,0.3106,0.3067,0.3132,0.3134,0.3116,0.3174,0.3174,0.3226,0.3159,0.316,0.3161,0,0.2531,0.258,0.2667,0.2725,0.2747,0.2789,0.2846,0.289,0.2941,0.296,0.3,0.3018,0.3075,0.3059,0.3137,0.3109,0.3137,0.3159,0.3161,0.3168,0.3149,0.3181,0.3244,0.3251,0.3174,0.3173,0.3172,0,0.2556,0.2646,0.2708,0.2734,0.2803,0.2832,0.2862,0.2912,0.2945,0.2995,0.3017,0.3073,0.3103,0.3145,0.3177,0.3163,0.3252,0.3239,0.3268,0.3267,0.3286,0.3284,0.3352,0.3306,0.3306,0.3305,0.3305,0,0.2619,0.2671,0.272,0.2759,0.2817,0.285,0.2906,0.2937,0.2981,0.3025,0.3045,0.3086,0.3126,0.3172,0.3198,0.3257,0.3271,0.3287,0.3293,0.3285,0.3282,0.3303,0.33,0.3308,0.3307,0.3307,0.3306,0,0.2657,0.2693,0.2762,0.2821,0.2837,0.2877,0.2927,0.2964,0.2994,0.3049,0.3064,0.311,0.3165,0.3201,0.3272,0.3288,0.3353,0.3359,0.3335,0.3338,0.3364,0.336,0.3448,0.346,0.3406,0.3406,0.3407,0,0.2694,0.2735,0.2797,0.2827,0.2857,0.2907,0.294,0.2974,0.3008,0.3067,0.3097,0.3153,0.32,0.3287,0.3326,0.3379,0.3386,0.3412,0.3394,0.3383,0.3384,0.3381,0.3384,0.3415,0.3416,0.3416,0.3416,0,0.2756,0.2771,0.2819,0.2872,0.2911,0.2955,0.2999,0.3023,0.3064,0.3101,0.3157,0.3193,0.3263,0.3318,0.3375,0.3405,0.3417,0.3422,0.3431,0.3423,0.3407,0.3414,0.3342,0.342,0.3419,0.3419,0.3419,0.3419,0.2794,0.2829,0.2878,0.293,0.2966,0.3006,0.3043,0.3076,0.3123,0.3183,0.3199,0.3257,0.3305,0.3382,0.3413,0.3458,0.3455,0.3469,0.3472,0.3475,0.3474,0.34,0.3468,0.3468,0.3468,0.3468,0.3468,0,0.2855,0.2886,0.2934,0.2993,0.3034,0.3041,0.3089,0.3122,0.3172,0.3216,0.326,0.3323,0.3376,0.3418,0.3472,0.35,0.3506,0.3512,0.351,0.3517,0.3474,0.346,0.3506,0.3506,0.3506,0.3506,0.3506,0.3506,0.2891,0.295,0.2971,0.3048,0.3079,0.3135,0.3162,0.3198,0.3232,0.3301,0.3345,0.3372,0.3414,0.3471,0.3519,0.353,0.3548,0.3553,0.3565,0.3524,0.352,0.3516,0.3503,0.3557,0.3557,0.3603,0.3604,0.3604]},{"header":{"parameterUnit":"m.s-1","parameterCategory":1,"la1":30.2991,"la2":30.254,"lo1":-89.0895,"lo2":-89.0444,"dy":0.0017,"dx":0.0017,"nx":28,"ny":28,"refTime":"2023-08-23T03:00:00:Z","depth":0,"parameterNumber":3,"parameterNumberName":"V-component_of_WINDS"},"data":[0,0,0,0,0,0,0,0,0,0,0,0,0,0,0,0,0,0,0,0,0,0,0,0,0,0,0,0,0,0,0,0,0,0,0,0,0,0,0,0,0,0,0,0,0,0,0,0,0,0,0,0,0,0,0,0,0,0,2.4673,2.4673,0,2.4677,2.4677,2.4677,2.4672,2.4672,2.4671,2.4671,2.4671,2.4671,2.4671,0,0,0,0,0,0,0,0,0,0,0,0,0,2.4651,2.4652,2.4673,2.4673,2.4673,2.4677,2.4677,2.4677,2.4672,2.4672,2.4671,2.4671,2.4671,2.4671,2.4671,0,0,0,0,0,0,0,0,0,0,0,0,0,2.4659,2.4652,2.4673,2.4671,2.4671,2.4677,2.4677,2.4677,2.4672,2.4672,2.4671,2.4671,2.4671,2.4671,2.4671,2.4678,0,0,2.4672,2.4672,0,0,0,0,0,0,0,0,2.4658,2.4659,2.4671,2.4671,2.4671,2.4674,2.467,2.4677,2.4672,2.4671,2.4671,2.4671,2.4672,2.4672,2.4673,2.4678,2.4678,2.4672,2.4672,2.4672,2.4672,0,0,0,0,0,0,0,2.4658,2.4659,2.4674,2.4671,2.4671,2.4667,2.4668,2.4671,2.4673,2.4671,2.4671,2.4672,2.4672,2.4673,2.4673,2.4678,2.4672,2.4672,2.4672,2.4673,2.4683,2.4684,0,0,0,0,0,0,2.4658,2.4659,2.4674,2.4675,2.4664,2.4668,2.4668,2.4673,2.4673,2.4673,2.4672,2.4672,2.4673,2.4673,2.4673,2.4678,2.4672,2.4673,2.4673,2.4683,2.4683,2.4684,0,0,0,0,0,0,2.4658,2.466,2.4674,2.4667,2.4668,2.4668,2.4673,2.4673,2.4675,2.4674,2.4673,2.4674,2.4673,2.4673,2.4676,2.4678,2.4673,2.4673,2.4683,2.4683,2.4684,2.469,0,0,0,0,0,0,2.4657,2.466,2.4665,2.4667,2.4669,2.468,2.4674,2.4674,2.4676,2.4675,2.4675,2.4675,2.4672,2.4676,2.4676,2.4678,2.4673,2.4683,2.4683,2.4683,2.469,2.469,2.4691,0,0,0,0,0,2.4657,2.4667,2.4665,2.4667,2.4675,2.468,2.4681,2.4679,2.4676,2.4679,2.4677,2.4675,2.4678,2.4676,2.4677,2.4679,2.4683,2.4683,2.4683,2.4689,2.469,2.4691,0,0,0,0,0,0,2.4665,2.4667,2.4666,2.4677,2.4678,2.4679,2.4684,2.4681,2.4683,2.4682,2.4678,2.4678,2.4681,2.468,2.4679,2.4683,2.4679,2.468,2.4683,2.4684,2.4685,2.4685,2.4673,0,0,0,0,0,2.4668,2.4674,2.4675,2.4684,2.4685,2.4684,2.4686,2.4685,2.4685,2.4686,2.4684,2.4683,2.4683,2.4684,2.4685,2.4689,2.4687,2.469,2.4691,2.4691,2.4692,2.4689,2.469,2.4685,2.4685,2.4685,0,0,2.4675,2.4676,2.4681,2.4686,2.4687,2.469,2.4685,2.469,2.469,2.4686,2.4689,2.4687,2.4685,2.4688,2.4689,2.4687,2.4692,2.4692,2.4692,2.4692,2.469,2.469,2.469,2.4685,2.4685,2.4685,0,0,2.4688,2.4692,2.4698,2.4698,2.4699,2.4698,2.4699,2.4699,2.4698,2.4701,2.4696,2.4696,2.4698,2.4695,2.4694,2.47,2.4696,2.47,2.4704,2.4702,2.4702,2.4702,2.4702,2.4702,2.4701,2.4701,2.4701,0,2.4696,2.4702,2.4701,2.4705,2.4705,2.4701,2.4705,2.4705,2.4706,2.4705,2.4703,2.4702,2.47,2.47,2.4701,2.4702,2.47,2.4701,2.4703,2.4703,2.4703,2.4702,2.4702,2.4701,2.4701,2.4701,2.4701,0,2.4709,2.4714,2.4718,2.4719,2.472,2.4724,2.472,2.472,2.4717,2.4715,2.4715,2.4712,2.471,2.471,2.4708,2.4708,2.4707,2.4704,2.47,2.4704,2.4703,2.4703,2.4701,2.4701,2.4701,2.4701,0,0,2.4731,2.4728,2.4729,2.4727,2.4726,2.4728,2.4729,2.4728,2.4726,2.4725,2.4724,2.4723,2.4719,2.4718,2.4714,2.4713,2.4713,2.4709,2.4709,2.4708,2.4709,2.471,2.471,2.471,2.471,2.471,2.4708,0,2.4742,2.4746,2.4743,2.4746,2.4747,2.4741,2.4741,2.4738,2.4735,2.4733,2.4728,2.4726,2.4723,2.4721,2.4719,2.4714,2.4713,2.4714,2.4706,2.4706,2.4706,2.471,2.4712,2.4711,2.4708,2.4708,2.4708,0,2.4756,2.4755,2.4759,2.4753,2.4753,2.4754,2.475,2.4749,2.4744,2.4741,2.4737,2.4732,2.4729,2.4726,2.4719,2.472,2.4716,2.4712,2.4711,2.471,2.4707,2.4707,2.4711,2.471,2.4708,2.4708,2.4708,0,2.4767,2.4767,2.4768,2.4767,2.4761,2.4761,2.4758,2.4752,2.475,2.4745,2.4743,2.4738,2.4734,2.4729,2.4721,2.472,2.4714,2.4711,2.4709,2.4709,2.4708,2.4708,2.471,2.4708,2.4708,2.4708,2.4708,0,2.4779,2.4781,2.4772,2.4773,2.4773,2.4767,2.4767,2.4763,2.4757,2.4754,2.4747,2.4744,2.4735,2.4729,2.4723,2.4716,2.4715,2.471,2.4708,2.4711,2.4711,2.4707,2.4707,2.4707,2.4707,2.4708,2.4708,0,2.4792,2.4787,2.4787,2.478,2.4778,2.4778,2.4771,2.4769,2.4764,2.476,2.4758,2.4749,2.4742,2.4733,2.4724,2.4719,2.4712,2.471,2.4714,2.4713,2.471,2.471,2.4709,2.4708,2.4708,2.4708,2.4708,0,2.4799,2.48,2.4792,2.479,2.4788,2.4785,2.4782,2.4774,2.4771,2.4762,2.476,2.4753,2.4746,2.4734,2.4725,2.4716,2.4713,2.4713,2.4712,2.4712,2.471,2.471,2.4708,2.4714,2.4714,2.4714,2.4714,0,2.4811,2.4808,2.4805,2.4799,2.4796,2.4791,2.4786,2.4784,2.4775,2.477,2.4763,2.4758,2.4747,2.4738,2.4727,2.4721,2.4714,2.4714,2.4713,2.4714,2.4716,2.4712,2.4714,2.4714,2.4714,2.4714,2.4714,2.4714,2.482,2.4819,2.4812,2.4808,2.4803,2.4797,2.4794,2.4787,2.4782,2.4773,2.4767,2.4759,2.4749,2.4734,2.4727,2.4719,2.4717,2.4716,2.4715,2.4714,2.4714,2.4718,2.4717,2.4717,2.4717,2.4717,2.4717,0,2.4829,2.4824,2.482,2.4812,2.4807,2.4802,2.4795,2.4791,2.4784,2.4776,2.4769,2.4758,2.4748,2.4737,2.4726,2.4721,2.4717,2.4718,2.4718,2.4715,2.4717,2.4719,2.4721,2.4721,2.4721,2.4721,2.4721,2.4721,2.4834,2.4831,2.4825,2.4818,2.4812,2.4805,2.48,2.4793,2.4786,2.4775,2.4767,2.476,2.4749,2.4736,2.4726,2.4722,2.4717,2.4719,2.4714,2.4716,2.4716,2.4716,2.4717,2.4718,2.4718,2.4713,2.4713,2.4712]}]]